Weather History for Delta, CO

Change the Weather History Date:

Friday, August 8, 2014

  Actual Average (KMTJ) Record (KMTJ)
Temperature  
Mean Temperature 72 °F 72 °F  
Max Temperature 91 °F 87 °F 96 °F (2000)
Min Temperature 54 °F 57 °F 52 °F (2014)
Degree Days  
Heating Degree Days 0 0  
Month to date heating degree days 0  
Since 1 June heating degree days 39  
Since 1 July heating degree days 0  
Cooling Degree Days 8 7  
Month to date cooling degree days 62  
Year to date cooling degree days 484  
Since 1 June cooling degree days 467  
Growing Degree Days 22 (Base 50)    
Moisture  
Dew Point 38 °F    
Average Humidity 34    
Maximum Humidity 66    
Minimum Humidity 10    
Precipitation  
Precipitation 0.00 in 0.05 in 0.10 in (1999)
Month to date precipitation 0.32  
Year to date precipitation 6.39  
Sea Level Pressure  
Sea Level Pressure 30.12 in    
Wind  
Wind Speed 5 mph (East)    
Max Wind Speed 13 mph    
Max Gust Speed 16 mph    
Visibility 8 miles    
Events      
T = Trace of Precipitation, MM = Missing Value Source: NWS Daily Summary

Daily Weather History Graph

Daily Weather History Graph

Search for Another Location

Airport:

Trip Planner

Search our weather history database for the weather conditions in past years. The results will help you decide how hot, cold, wet, or windy it might be!

Date:

Astronomy

Aug. 08, 2014 Rise Set
Actual Time 6:19 AM MDT 8:15 PM MDT
Civil Twilight 5:50 AM MDT 8:44 PM MDT
Nautical Twilight 5:15 AM MDT 9:19 PM MDT
Astronomical Twilight 4:37 AM MDT 9:57 PM MDT
Moon 6:29 PM MDT (8/8) 3:56 AM MDT (8/8)
Length of Visible Light 14h 53m
Length of Day
13h 55m
Waxing Gibbous, 94% of the Moon is Illuminated
Aug 8
Waxing Gibbous
Aug 10
Full
Aug 17
Last Quarter
Aug 25
New
Sep 2
First Quarter

Hourly Weather History & Observations

Time (MDT) Temp. Dew Point Humidity Pressure Visibility Wind Dir Wind Speed Gust Speed Precip Events Conditions
12:15 AM 69.1 °F 42.1 °F 38% 30.10 in 7.0 mi Calm Calm - N/A   Clear
12:35 AM 67.5 °F 42.3 °F 40% 30.10 in 7.0 mi NNE 9.2 mph - N/A   Clear
12:55 AM 65.3 °F 42.3 °F 43% 30.11 in 7.0 mi NNE 6.9 mph - N/A   Clear
1:15 AM 64.4 °F 43.0 °F 46% 30.11 in 10.0 mi NNE 6.9 mph - N/A   Clear
1:35 AM 65.8 °F 39.9 °F 39% 30.11 in 7.0 mi NE 4.6 mph - N/A   Clear
1:55 AM 64.9 °F 39.9 °F 40% 30.11 in 10.0 mi ENE 5.8 mph - N/A   Clear
2:15 AM 63.0 °F 40.3 °F 43% 30.11 in 10.0 mi NE 6.9 mph - N/A   Clear
2:35 AM 61.3 °F 40.5 °F 46% 30.10 in 10.0 mi NE 8.1 mph - N/A   Clear
2:55 AM 61.0 °F 42.1 °F 50% 30.11 in 10.0 mi SSE 3.5 mph - N/A   Clear
3:15 AM 60.4 °F 41.2 °F 49% 30.12 in 7.0 mi East 3.5 mph - N/A   Clear
3:35 AM 59.2 °F 43.5 °F 56% 30.12 in 7.0 mi ENE 4.6 mph - N/A   Clear
3:55 AM 58.6 °F 44.2 °F 59% 30.12 in 7.0 mi NNE 4.6 mph - N/A   Clear
4:15 AM 59.7 °F 42.8 °F 54% 30.12 in 7.0 mi NE 6.9 mph - N/A   Clear
4:35 AM 59.4 °F 42.1 °F 53% 30.12 in 7.0 mi ENE 6.9 mph - N/A   Clear
4:55 AM 61.5 °F 41.0 °F 47% 30.13 in 7.0 mi ENE 6.9 mph - N/A   Clear
5:15 AM 59.5 °F 41.5 °F 51% 30.13 in 7.0 mi Calm Calm - N/A   Clear
5:35 AM 58.6 °F 42.8 °F 56% 30.13 in 10.0 mi ENE 3.5 mph - N/A   Clear
5:55 AM 57.4 °F 41.4 °F 55% 30.14 in 7.0 mi ESE 4.6 mph - N/A   Clear
6:15 AM 55.0 °F 41.7 °F 61% 30.14 in 10.0 mi Calm Calm - N/A   Clear
6:35 AM 54.0 °F 43.0 °F 66% 30.15 in 5.0 mi NE 4.6 mph - N/A   Haze
6:55 AM 57.7 °F 41.9 °F 56% 30.16 in 7.0 mi East 3.5 mph - N/A   Clear
7:15 AM 58.8 °F 42.8 °F 55% 30.16 in 10.0 mi NE 3.5 mph - N/A   Clear
7:35 AM 61.9 °F 40.6 °F 46% 30.16 in 10.0 mi ENE 6.9 mph - N/A   Clear
7:55 AM 62.8 °F 41.9 °F 46% 30.17 in 10.0 mi ENE 11.5 mph - N/A   Clear
8:15 AM 64.8 °F 41.7 °F 43% 30.17 in 7.0 mi East 8.1 mph - N/A   Clear
8:35 AM 66.2 °F 41.5 °F 41% 30.17 in 10.0 mi East 5.8 mph - N/A   Clear
8:55 AM 67.6 °F 41.9 °F 39% 30.17 in 10.0 mi East 4.6 mph - N/A   Clear
9:15 AM 68.9 °F 43.9 °F 40% 30.17 in 10.0 mi ESE 3.5 mph - N/A   Clear
9:35 AM 70.2 °F 43.0 °F 37% 30.17 in 10.0 mi East 4.6 mph - N/A   Clear
9:55 AM 71.6 °F 39.7 °F 31% 30.17 in 10.0 mi Calm Calm - N/A   Clear
10:35 AM 75.6 °F 40.3 °F 28% 30.16 in 10.0 mi East 3.5 mph - N/A   Clear
10:55 AM 77.7 °F 38.7 °F 25% 30.16 in 5.0 mi Calm Calm - N/A   Haze
11:15 AM 79.9 °F 36.5 °F 21% 30.15 in 7.0 mi Calm Calm - N/A   Clear
11:35 AM 81.3 °F 35.6 °F 19% 30.15 in 10.0 mi Calm Calm - N/A   Clear
12:15 PM 83.5 °F 37.6 °F 19% 30.14 in 7.0 mi SE 3.5 mph - N/A   Clear
12:35 PM 84.9 °F 36.7 °F 18% 30.13 in 5.0 mi SSE 5.8 mph - N/A   Haze
12:55 PM 86.4 °F 35.4 °F 16% 30.13 in 3.0 mi SSE 5.8 mph - N/A   Haze
1:15 PM 87.6 °F 32.7 °F 14% 30.12 in 7.0 mi SSW 5.8 mph - N/A   Clear
1:35 PM 89.1 °F 32.2 °F 13% 30.12 in 7.0 mi SW 5.8 mph - N/A   Clear
1:55 PM 90.1 °F 31.1 °F 12% 30.11 in 7.0 mi South 5.8 mph - N/A   Clear
2:15 PM 89.8 °F 32.0 °F 13% 30.11 in 7.0 mi South 6.9 mph - N/A   Clear
2:35 PM 89.2 °F 31.5 °F 13% 30.10 in 7.0 mi SSE 8.1 mph - N/A   Clear
2:55 PM 89.2 °F 30.4 °F 12% 30.10 in 7.0 mi South 3.5 mph - N/A   Clear
3:15 PM 90.1 °F 28.2 °F 11% 30.09 in 7.0 mi South 5.8 mph - N/A   Clear
3:35 PM 88.3 °F 28.8 °F 12% 30.08 in 7.0 mi South 4.6 mph - N/A   Clear
3:55 PM 89.4 °F 28.0 °F 11% 30.07 in 7.0 mi WNW 4.6 mph - N/A   Clear
4:15 PM 91.8 °F 28.9 °F 11% 30.06 in 10.0 mi SSE 9.2 mph - N/A   Clear
4:35 PM 91.9 °F 31.3 °F 12% 30.06 in 7.0 mi South 6.9 mph - N/A   Clear
4:55 PM 91.6 °F 27.5 °F 10% 30.06 in 5.0 mi West 12.7 mph 16.1 mph N/A   Haze
5:55 PM 91.6 °F 29.1 °F 11% 30.04 in 7.0 mi SSW 8.1 mph - N/A   Clear
6:35 PM 89.8 °F 32.0 °F 13% 30.04 in 7.0 mi SSE 5.8 mph - N/A   Clear
10:55 PM 73.2 °F 36.3 °F 26% 30.09 in 10.0 mi East 5.8 mph - N/A   Clear